Year,Month,Day,Hour,Minute,Value (Times are PST for temperature in C)
2011,10,15,00,00,4.10
2011,10,15,00,01,4.10
2011,10,15,00,02,4.00
2011,10,15,00,03,4.00
2011,10,15,00,04,4.00
2011,10,15,00,05,3.90
2011,10,15,00,06,3.90
2011,10,15,00,07,3.90
2011,10,15,00,08,3.90
2011,10,15,00,09,3.80
2011,10,15,00,10,3.80
2011,10,15,00,11,3.80
2011,10,15,00,12,3.80
2011,10,15,00,13,3.90
2011,10,15,00,14,3.90
2011,10,15,00,15,3.90
2011,10,15,00,16,3.90
2011,10,15,00,17,3.90
2011,10,15,00,18,4.00
2011,10,15,00,19,3.90
2011,10,15,00,20,3.90
2011,10,15,00,21,3.90
2011,10,15,00,22,3.90
2011,10,15,00,23,3.90
2011,10,15,00,24,3.90
2011,10,15,00,25,3.90
2011,10,15,00,26,3.80
2011,10,15,00,27,3.80
2011,10,15,00,28,3.80
2011,10,15,00,29,3.80
2011,10,15,00,30,3.80
2011,10,15,00,31,3.80
2011,10,15,00,32,3.80
2011,10,15,00,33,3.80
2011,10,15,00,34,3.80
2011,10,15,00,35,3.90
2011,10,15,00,36,3.90
2011,10,15,00,37,3.90
2011,10,15,00,38,3.90
2011,10,15,00,39,3.90
2011,10,15,00,40,4.00
2011,10,15,00,41,4.00
2011,10,15,00,42,4.00
2011,10,15,00,43,4.00
2011,10,15,00,44,4.00
2011,10,15,00,45,4.00
2011,10,15,00,46,4.00
2011,10,15,00,47,4.00
2011,10,15,00,48,4.10
2011,10,15,00,49,4.10
2011,10,15,00,50,4.10
2011,10,15,00,51,4.10
2011,10,15,00,52,4.10
2011,10,15,00,53,4.10
2011,10,15,00,54,4.10
2011,10,15,00,55,4.10
2011,10,15,00,56,4.00
2011,10,15,00,57,4.00
2011,10,15,00,58,4.00
2011,10,15,00,59,3.90
2011,10,15,01,00,3.90
2011,10,15,01,01,3.90
2011,10,15,01,02,3.80
2011,10,15,01,03,3.80
2011,10,15,01,04,3.80
2011,10,15,01,05,3.80
2011,10,15,01,06,3.80
2011,10,15,01,07,3.80
2011,10,15,01,08,3.80
2011,10,15,01,09,3.80
2011,10,15,01,10,3.80
2011,10,15,01,11,3.80
2011,10,15,01,12,3.80
2011,10,15,01,13,3.80
2011,10,15,01,14,3.80
2011,10,15,01,15,3.80
2011,10,15,01,16,3.80
2011,10,15,01,17,3.90
2011,10,15,01,18,3.90
2011,10,15,01,19,3.90
2011,10,15,01,20,3.90
2011,10,15,01,21,3.90
2011,10,15,01,22,3.90
2011,10,15,01,23,3.90
2011,10,15,01,24,3.90
2011,10,15,01,25,3.80
2011,10,15,01,26,3.80
2011,10,15,01,27,3.80
2011,10,15,01,28,3.80
2011,10,15,01,29,3.80
2011,10,15,01,30,3.80
2011,10,15,01,31,3.80
2011,10,15,01,32,3.80
2011,10,15,01,33,3.80
2011,10,15,01,34,3.70
2011,10,15,01,35,3.70
2011,10,15,01,36,3.70
2011,10,15,01,37,3.70
2011,10,15,01,38,3.60
2011,10,15,01,39,3.60
2011,10,15,01,40,3.60
2011,10,15,01,41,3.50
2011,10,15,01,42,3.50
2011,10,15,01,43,3.50
2011,10,15,01,44,3.50
2011,10,15,01,45,3.40
2011,10,15,01,46,3.40
2011,10,15,01,47,3.30
2011,10,15,01,48,3.30
2011,10,15,01,49,3.30
2011,10,15,01,50,3.30
2011,10,15,01,51,3.30
2011,10,15,01,52,3.30
2011,10,15,01,53,3.20
2011,10,15,01,54,3.20
2011,10,15,01,55,3.20
2011,10,15,01,56,3.20
2011,10,15,01,57,3.20
2011,10,15,01,58,3.20
2011,10,15,01,59,3.20
2011,10,15,02,00,3.20
2011,10,15,02,01,3.20
2011,10,15,02,02,3.20
2011,10,15,02,03,3.20
2011,10,15,02,04,3.20
2011,10,15,02,05,3.20
2011,10,15,02,06,3.30
2011,10,15,02,07,3.30
2011,10,15,02,08,3.30
2011,10,15,02,09,3.30
2011,10,15,02,10,3.30
2011,10,15,02,11,3.30
2011,10,15,02,12,3.30
2011,10,15,02,13,3.30
2011,10,15,02,14,3.30
2011,10,15,02,15,3.30
2011,10,15,02,16,3.30
2011,10,15,02,17,3.40
2011,10,15,02,18,3.40
2011,10,15,02,19,3.40
2011,10,15,02,20,3.40
2011,10,15,02,21,3.50
2011,10,15,02,22,3.50
2011,10,15,02,23,3.50
2011,10,15,02,24,3.50
2011,10,15,02,25,3.60
2011,10,15,02,26,3.60
2011,10,15,02,27,3.60
2011,10,15,02,28,3.60
2011,10,15,02,29,3.60
2011,10,15,02,30,3.70
2011,10,15,02,31,3.70
2011,10,15,02,32,3.70
2011,10,15,02,33,3.70
2011,10,15,02,34,3.70
2011,10,15,02,35,3.70
2011,10,15,02,36,3.80
2011,10,15,02,37,3.80
2011,10,15,02,38,3.80
2011,10,15,02,39,3.80
2011,10,15,02,40,3.80
2011,10,15,02,41,3.80
2011,10,15,02,42,3.80
2011,10,15,02,43,3.80
2011,10,15,02,44,3.80
2011,10,15,02,45,3.80
2011,10,15,02,46,3.80
2011,10,15,02,47,3.80
2011,10,15,02,48,3.80
2011,10,15,02,49,3.80
2011,10,15,02,50,3.80
2011,10,15,02,51,3.80
2011,10,15,02,52,3.80
2011,10,15,02,53,3.80
2011,10,15,02,54,3.80
2011,10,15,02,55,3.80
2011,10,15,02,56,3.90
2011,10,15,02,57,3.90
2011,10,15,02,58,3.90
2011,10,15,02,59,3.90
2011,10,15,03,00,3.80
2011,10,15,03,01,3.80
2011,10,15,03,02,3.80
2011,10,15,03,03,3.80
2011,10,15,03,04,3.80
2011,10,15,03,05,3.80
2011,10,15,03,06,3.80
2011,10,15,03,07,3.80
2011,10,15,03,08,3.80
2011,10,15,03,09,3.80
2011,10,15,03,10,3.80
2011,10,15,03,11,3.70
2011,10,15,03,12,3.70
2011,10,15,03,13,3.70
2011,10,15,03,14,3.60
2011,10,15,03,15,3.60
2011,10,15,03,16,3.60
2011,10,15,03,17,3.50
2011,10,15,03,18,3.50
2011,10,15,03,19,3.50
2011,10,15,03,20,3.50
2011,10,15,03,21,3.50
2011,10,15,03,22,3.40
2011,10,15,03,23,3.40
2011,10,15,03,24,3.40
2011,10,15,03,25,3.40
2011,10,15,03,26,3.30
2011,10,15,03,27,3.30
2011,10,15,03,28,3.30
2011,10,15,03,29,3.30
2011,10,15,03,30,3.30
2011,10,15,03,31,3.30
2011,10,15,03,32,3.30
2011,10,15,03,33,3.20
2011,10,15,03,34,3.20
2011,10,15,03,35,3.20
2011,10,15,03,36,3.20
2011,10,15,03,37,3.20
2011,10,15,03,38,3.20
2011,10,15,03,39,3.20
2011,10,15,03,40,3.20
2011,10,15,03,41,3.20
2011,10,15,03,42,3.20
2011,10,15,03,43,3.20
2011,10,15,03,44,3.20
2011,10,15,03,45,3.20
2011,10,15,03,46,3.20
2011,10,15,03,47,3.20
2011,10,15,03,48,3.20
2011,10,15,03,49,3.20
2011,10,15,03,50,3.20
2011,10,15,03,51,3.20
2011,10,15,03,52,3.20
2011,10,15,03,53,3.20
2011,10,15,03,54,3.20
2011,10,15,03,55,3.20
2011,10,15,03,56,3.20
2011,10,15,03,57,3.20
2011,10,15,03,58,3.20
2011,10,15,03,59,3.20
2011,10,15,04,00,3.20
2011,10,15,04,01,3.30
2011,10,15,04,02,3.30
2011,10,15,04,03,3.30
2011,10,15,04,04,3.30
2011,10,15,04,05,3.30
2011,10,15,04,06,3.30
2011,10,15,04,07,3.30
2011,10,15,04,08,3.30
2011,10,15,04,09,3.30
2011,10,15,04,10,3.30
2011,10,15,04,11,3.30
2011,10,15,04,12,3.30
2011,10,15,04,13,3.30
2011,10,15,04,14,3.30
2011,10,15,04,15,3.30
2011,10,15,04,16,3.30
2011,10,15,04,17,3.30
2011,10,15,04,18,3.30
2011,10,15,04,19,3.40
2011,10,15,04,20,3.40
2011,10,15,04,21,3.40
2011,10,15,04,22,3.40
2011,10,15,04,23,3.40
2011,10,15,04,24,3.40
2011,10,15,04,25,3.40
2011,10,15,04,26,3.40
2011,10,15,04,27,3.40
2011,10,15,04,28,3.40
2011,10,15,04,29,3.40
2011,10,15,04,30,3.40
2011,10,15,04,31,3.40
2011,10,15,04,32,3.40
2011,10,15,04,33,3.40
2011,10,15,04,34,3.40
2011,10,15,04,35,3.50
2011,10,15,04,36,3.50
2011,10,15,04,37,3.50
2011,10,15,04,38,3.40
2011,10,15,04,39,3.40
2011,10,15,04,40,3.40
2011,10,15,04,41,3.40
2011,10,15,04,42,3.40
2011,10,15,04,43,3.30
2011,10,15,04,44,3.30
2011,10,15,04,45,3.30
2011,10,15,04,46,3.30
2011,10,15,04,47,3.30
2011,10,15,04,48,3.30
2011,10,15,04,49,3.30
2011,10,15,04,50,3.30
2011,10,15,04,51,3.30
2011,10,15,04,52,3.30
2011,10,15,04,53,3.20
2011,10,15,04,54,3.20
2011,10,15,04,55,3.20
2011,10,15,04,56,3.20
2011,10,15,04,57,3.20
2011,10,15,04,58,3.20
2011,10,15,04,59,3.20
2011,10,15,05,00,3.20
2011,10,15,05,01,3.20
2011,10,15,05,02,3.20
2011,10,15,05,03,3.20
2011,10,15,05,04,3.20
2011,10,15,05,05,3.20
2011,10,15,05,06,3.20
2011,10,15,05,07,3.10
2011,10,15,05,08,3.10
2011,10,15,05,09,3.10
2011,10,15,05,10,3.10
2011,10,15,05,11,3.10
2011,10,15,05,12,3.10
2011,10,15,05,13,3.10
2011,10,15,05,14,3.10
2011,10,15,05,15,3.00
2011,10,15,05,16,2.90
2011,10,15,05,17,2.90
2011,10,15,05,18,2.90
2011,10,15,05,19,2.90
2011,10,15,05,20,2.80
2011,10,15,05,21,2.80
2011,10,15,05,22,2.80
2011,10,15,05,23,2.70
2011,10,15,05,24,2.70
2011,10,15,05,25,2.70
2011,10,15,05,26,2.70
2011,10,15,05,27,2.70
2011,10,15,05,28,2.70
2011,10,15,05,29,2.70
2011,10,15,05,30,2.70
2011,10,15,05,31,2.70
2011,10,15,05,32,2.70
2011,10,15,05,33,2.70
2011,10,15,05,34,2.70
2011,10,15,05,35,2.70
2011,10,15,05,36,2.70
2011,10,15,05,37,2.80
2011,10,15,05,38,2.80
2011,10,15,05,39,2.90
2011,10,15,05,40,2.90
2011,10,15,05,41,3.00
2011,10,15,05,42,3.10
2011,10,15,05,43,3.20
2011,10,15,05,44,3.20
2011,10,15,05,45,3.30
2011,10,15,05,46,3.30
2011,10,15,05,47,3.30
2011,10,15,05,48,3.40
2011,10,15,05,49,3.40
2011,10,15,05,50,3.40
2011,10,15,05,51,3.40
2011,10,15,05,52,3.50
2011,10,15,05,53,3.50
2011,10,15,05,54,3.40
2011,10,15,05,55,3.40
2011,10,15,05,56,3.40
2011,10,15,05,57,3.40
2011,10,15,05,58,3.30
2011,10,15,05,59,3.30
2011,10,15,06,00,3.30
2011,10,15,06,01,3.30
2011,10,15,06,02,3.30
2011,10,15,06,03,3.30
2011,10,15,06,04,3.30
2011,10,15,06,05,3.20
2011,10,15,06,06,3.20
2011,10,15,06,07,3.20
2011,10,15,06,08,3.20
2011,10,15,06,09,3.20
2011,10,15,06,10,3.20
2011,10,15,06,11,3.20
2011,10,15,06,12,3.20
2011,10,15,06,13,3.20
2011,10,15,06,14,3.20
2011,10,15,06,15,3.20
2011,10,15,06,16,3.20
2011,10,15,06,17,3.20
2011,10,15,06,18,3.20
2011,10,15,06,19,3.20
2011,10,15,06,20,3.10
2011,10,15,06,21,3.20
2011,10,15,06,22,3.30
2011,10,15,06,23,3.30
2011,10,15,06,24,3.30
2011,10,15,06,25,3.40
2011,10,15,06,26,3.50
2011,10,15,06,27,3.60
2011,10,15,06,28,3.70
2011,10,15,06,29,3.80
2011,10,15,06,30,3.80
2011,10,15,06,31,3.80
2011,10,15,06,32,3.80
2011,10,15,06,33,3.80
2011,10,15,06,34,3.80
2011,10,15,06,35,3.60
2011,10,15,06,36,3.50
2011,10,15,06,37,3.40
2011,10,15,06,38,3.30
2011,10,15,06,39,3.10
2011,10,15,06,40,3.00
2011,10,15,06,41,2.90
2011,10,15,06,42,2.90
2011,10,15,06,43,2.80
2011,10,15,06,44,2.70
2011,10,15,06,45,2.70
2011,10,15,06,46,2.70
2011,10,15,06,47,2.60
2011,10,15,06,48,2.60
2011,10,15,06,49,2.50
2011,10,15,06,50,2.50
2011,10,15,06,51,2.50
2011,10,15,06,52,2.50
2011,10,15,06,53,2.40
2011,10,15,06,54,2.40
2011,10,15,06,55,2.40
2011,10,15,06,56,2.40
2011,10,15,06,57,2.30
2011,10,15,06,58,2.30
2011,10,15,06,59,2.30
2011,10,15,07,00,2.20
2011,10,15,07,01,2.20
2011,10,15,07,02,2.20
2011,10,15,07,03,2.20
2011,10,15,07,04,2.20
2011,10,15,07,05,2.10
2011,10,15,07,06,2.10
2011,10,15,07,07,2.10
2011,10,15,07,08,2.00
2011,10,15,07,09,2.00
2011,10,15,07,10,1.90
2011,10,15,07,11,1.90
2011,10,15,07,12,1.90
2011,10,15,07,13,1.80
2011,10,15,07,14,1.80
2011,10,15,07,15,1.80
2011,10,15,07,16,1.80
2011,10,15,07,17,1.80
2011,10,15,07,18,1.80
2011,10,15,07,19,1.80
2011,10,15,07,20,1.80
2011,10,15,07,21,1.80
2011,10,15,07,22,1.80
2011,10,15,07,23,1.80
2011,10,15,07,24,1.80
2011,10,15,07,25,1.80
2011,10,15,07,26,1.70
2011,10,15,07,27,1.70
2011,10,15,07,28,1.70
2011,10,15,07,29,1.70
2011,10,15,07,30,1.70
2011,10,15,07,31,1.60
2011,10,15,07,32,1.60
2011,10,15,07,33,1.60
2011,10,15,07,34,1.60
2011,10,15,07,35,1.60
2011,10,15,07,36,1.50
2011,10,15,07,37,1.50
2011,10,15,07,38,1.50
2011,10,15,07,39,1.50
2011,10,15,07,40,1.50
2011,10,15,07,41,1.50
2011,10,15,07,42,1.50
2011,10,15,07,43,1.40
2011,10,15,07,44,1.40
2011,10,15,07,45,1.40
2011,10,15,07,46,1.40
2011,10,15,07,47,1.40
2011,10,15,07,48,1.40
2011,10,15,07,49,1.40
2011,10,15,07,50,1.40
2011,10,15,07,51,1.40
2011,10,15,07,52,1.40
2011,10,15,07,53,1.40
2011,10,15,07,54,1.40
2011,10,15,07,55,1.40
2011,10,15,07,56,1.40
2011,10,15,07,57,1.50
2011,10,15,07,58,1.50
2011,10,15,07,59,1.50
2011,10,15,08,00,1.50
2011,10,15,08,01,1.60
2011,10,15,08,02,1.60
2011,10,15,08,03,1.60
2011,10,15,08,04,1.70
2011,10,15,08,05,1.70
2011,10,15,08,06,1.70
2011,10,15,08,07,1.70
2011,10,15,08,08,1.70
2011,10,15,08,09,1.70
2011,10,15,08,10,1.70
2011,10,15,08,11,1.70
2011,10,15,08,12,1.70
2011,10,15,08,13,1.70
2011,10,15,08,14,1.80
2011,10,15,08,15,1.80
2011,10,15,08,16,1.80
2011,10,15,08,17,1.90
2011,10,15,08,18,2.10
2011,10,15,08,19,2.20
2011,10,15,08,20,2.20
2011,10,15,08,21,2.30
2011,10,15,08,22,2.30
2011,10,15,08,23,2.40
2011,10,15,08,24,2.50
2011,10,15,08,25,2.60
2011,10,15,08,26,2.80
2011,10,15,08,27,3.00
2011,10,15,08,28,3.20
2011,10,15,08,29,3.40
2011,10,15,08,30,3.60
2011,10,15,08,31,3.70
2011,10,15,08,32,3.90
2011,10,15,08,33,4.00
2011,10,15,08,34,4.00
2011,10,15,08,35,4.10
2011,10,15,08,36,4.20
2011,10,15,08,37,4.30
2011,10,15,08,38,4.30
2011,10,15,08,39,4.40
2011,10,15,08,40,4.40
2011,10,15,08,41,4.50
2011,10,15,08,42,4.60
2011,10,15,08,43,4.60
2011,10,15,08,44,4.60
2011,10,15,08,45,4.70
2011,10,15,08,46,4.70
2011,10,15,08,47,4.70
2011,10,15,08,48,4.80
2011,10,15,08,49,4.80
2011,10,15,08,50,4.80
2011,10,15,08,51,4.80
2011,10,15,08,52,4.80
2011,10,15,08,53,4.90
2011,10,15,08,54,4.90
2011,10,15,08,55,4.90
2011,10,15,08,56,4.90
2011,10,15,08,57,5.00
2011,10,15,08,58,5.10
2011,10,15,08,59,5.10
2011,10,15,09,00,5.10
2011,10,15,09,01,5.10
2011,10,15,09,02,5.10
2011,10,15,09,03,5.10
2011,10,15,09,04,5.20
2011,10,15,09,05,5.20
2011,10,15,09,06,5.30
2011,10,15,09,07,5.30
2011,10,15,09,08,5.30
2011,10,15,09,09,5.40
2011,10,15,09,10,5.40
2011,10,15,09,11,5.40
2011,10,15,09,12,5.50
2011,10,15,09,13,5.50
2011,10,15,09,14,5.60
2011,10,15,09,15,5.60
2011,10,15,09,16,5.70
2011,10,15,09,17,5.70
2011,10,15,09,18,5.80
2011,10,15,09,19,5.90
2011,10,15,09,20,5.90
2011,10,15,09,21,6.00
2011,10,15,09,22,6.00
2011,10,15,09,23,6.00
2011,10,15,09,24,6.10
2011,10,15,09,25,6.20
2011,10,15,09,26,6.20
2011,10,15,09,27,6.20
2011,10,15,09,28,6.30
2011,10,15,09,29,6.30
2011,10,15,09,30,6.40
2011,10,15,09,31,6.40
2011,10,15,09,32,6.50
2011,10,15,09,33,6.60
2011,10,15,09,34,6.70
2011,10,15,09,35,6.70
2011,10,15,09,36,6.80
2011,10,15,09,37,6.90
2011,10,15,09,38,7.00
2011,10,15,09,39,7.00
2011,10,15,09,40,7.10
2011,10,15,09,41,7.20
2011,10,15,09,42,7.30
2011,10,15,09,43,7.30
2011,10,15,09,44,7.40
2011,10,15,09,45,7.40
2011,10,15,09,46,7.50
2011,10,15,09,47,7.60
2011,10,15,09,48,7.60
2011,10,15,09,49,7.60
2011,10,15,09,50,7.60
2011,10,15,09,51,7.60
2011,10,15,09,52,7.70
2011,10,15,09,53,7.70
2011,10,15,09,54,7.70
2011,10,15,09,55,7.70
2011,10,15,09,56,7.70
2011,10,15,09,57,7.70
2011,10,15,09,58,7.80
2011,10,15,09,59,7.80
2011,10,15,10,00,7.90
2011,10,15,10,01,7.80
2011,10,15,10,02,7.90
2011,10,15,10,03,7.90
2011,10,15,10,04,8.00
2011,10,15,10,05,8.10
2011,10,15,10,06,8.20
2011,10,15,10,07,8.30
2011,10,15,10,08,8.40
2011,10,15,10,09,8.50
2011,10,15,10,10,8.50
2011,10,15,10,11,8.60
2011,10,15,10,12,8.60
2011,10,15,10,13,8.60
2011,10,15,10,14,8.60
2011,10,15,10,15,8.60
2011,10,15,10,16,8.60
2011,10,15,10,17,8.60
2011,10,15,10,18,8.70
2011,10,15,10,19,8.80
2011,10,15,10,20,8.90
2011,10,15,10,21,8.90
2011,10,15,10,22,9.00
2011,10,15,10,23,9.10
2011,10,15,10,24,9.10
2011,10,15,10,25,9.10
2011,10,15,10,26,9.20
2011,10,15,10,27,9.20
2011,10,15,10,28,9.20
2011,10,15,10,29,9.20
2011,10,15,10,30,9.20
2011,10,15,10,31,9.20
2011,10,15,10,32,9.20
2011,10,15,10,33,9.20
2011,10,15,10,34,9.20
2011,10,15,10,35,9.20
2011,10,15,10,36,9.20
2011,10,15,10,37,9.20
2011,10,15,10,38,9.30
2011,10,15,10,39,9.30
2011,10,15,10,40,9.30
2011,10,15,10,41,9.40
2011,10,15,10,42,9.50
2011,10,15,10,43,9.60
2011,10,15,10,44,9.70
2011,10,15,10,45,9.70
2011,10,15,10,46,9.80
2011,10,15,10,47,9.80
2011,10,15,10,48,9.90
2011,10,15,10,49,9.80
2011,10,15,10,50,9.80
2011,10,15,10,51,9.80
2011,10,15,10,52,9.80
2011,10,15,10,53,9.80
2011,10,15,10,54,9.90
2011,10,15,10,55,9.90
2011,10,15,10,56,9.80
2011,10,15,10,57,9.90
2011,10,15,10,58,9.90
2011,10,15,10,59,9.90
2011,10,15,11,00,9.90
2011,10,15,11,01,9.90
2011,10,15,11,02,9.90
2011,10,15,11,03,10.00
2011,10,15,11,04,10.20
2011,10,15,11,05,10.20
2011,10,15,11,06,10.30
2011,10,15,11,07,10.30
2011,10,15,11,08,10.30
2011,10,15,11,09,10.30
2011,10,15,11,10,10.20
2011,10,15,11,11,10.20
2011,10,15,11,12,10.10
2011,10,15,11,13,10.10
2011,10,15,11,14,10.10
2011,10,15,11,15,9.90
2011,10,15,11,16,9.90
2011,10,15,11,17,9.90
2011,10,15,11,18,9.90
2011,10,15,11,19,9.90
2011,10,15,11,20,9.90
2011,10,15,11,21,9.90
2011,10,15,11,22,9.90
2011,10,15,11,23,9.90
2011,10,15,11,24,9.90
2011,10,15,11,25,9.90
2011,10,15,11,26,9.90
2011,10,15,11,27,9.90
2011,10,15,11,28,9.90
2011,10,15,11,29,9.90
2011,10,15,11,30,10.00
2011,10,15,11,31,10.10
2011,10,15,11,32,10.20
2011,10,15,11,33,10.20
2011,10,15,11,34,10.20
2011,10,15,11,35,10.30
2011,10,15,11,36,10.30
2011,10,15,11,37,10.40
2011,10,15,11,38,10.40
2011,10,15,11,39,10.40
2011,10,15,11,40,10.40
2011,10,15,11,41,10.40
2011,10,15,11,42,10.40
2011,10,15,11,43,10.50
2011,10,15,11,44,10.60
2011,10,15,11,45,10.60
2011,10,15,11,46,10.60
2011,10,15,11,47,10.60
2011,10,15,11,48,10.60
2011,10,15,11,49,10.60
2011,10,15,11,50,10.60
2011,10,15,11,51,10.60
2011,10,15,11,52,10.60
2011,10,15,11,53,10.60
2011,10,15,11,54,10.60
2011,10,15,11,55,10.70
2011,10,15,11,56,10.80
2011,10,15,11,57,10.90
2011,10,15,11,58,11.00
2011,10,15,11,59,11.10
2011,10,15,12,00,11.10
2011,10,15,12,01,11.10
2011,10,15,12,02,11.20
2011,10,15,12,03,11.30
2011,10,15,12,04,11.20
2011,10,15,12,05,11.20
2011,10,15,12,06,11.10
2011,10,15,12,07,11.20
2011,10,15,12,08,11.20
2011,10,15,12,09,11.10
2011,10,15,12,10,11.10
2011,10,15,12,11,11.10
2011,10,15,12,12,11.20
2011,10,15,12,13,11.20
2011,10,15,12,14,11.20
2011,10,15,12,15,11.30
2011,10,15,12,16,11.40
2011,10,15,12,17,11.40
2011,10,15,12,18,11.50
2011,10,15,12,19,11.60
2011,10,15,12,20,11.60
2011,10,15,12,21,11.70
2011,10,15,12,22,11.70
2011,10,15,12,23,11.60
2011,10,15,12,24,11.60
2011,10,15,12,25,11.60
2011,10,15,12,26,11.60
2011,10,15,12,27,11.60
2011,10,15,12,28,11.50
2011,10,15,12,29,11.40
2011,10,15,12,30,11.30
2011,10,15,12,31,11.30
2011,10,15,12,32,11.20
2011,10,15,12,33,11.20
2011,10,15,12,34,11.30
2011,10,15,12,35,11.30
2011,10,15,12,36,11.40
2011,10,15,12,37,11.40
2011,10,15,12,38,11.50
2011,10,15,12,39,11.60
2011,10,15,12,40,11.70
2011,10,15,12,41,11.80
2011,10,15,12,42,11.80
2011,10,15,12,43,11.80
2011,10,15,12,44,11.80
2011,10,15,12,45,11.80
2011,10,15,12,46,11.80
2011,10,15,12,47,11.80
2011,10,15,12,48,11.90
2011,10,15,12,49,12.00
2011,10,15,12,50,12.10
2011,10,15,12,51,12.10
2011,10,15,12,52,12.20
2011,10,15,12,53,12.30
2011,10,15,12,54,12.30
2011,10,15,12,55,12.30
2011,10,15,12,56,12.20
2011,10,15,12,57,12.10
2011,10,15,12,58,12.10
2011,10,15,12,59,12.00
2011,10,15,13,00,12.00
2011,10,15,13,01,11.90
2011,10,15,13,02,11.90
2011,10,15,13,03,11.90
2011,10,15,13,04,11.80
2011,10,15,13,05,11.80
2011,10,15,13,06,11.80
2011,10,15,13,07,11.80
2011,10,15,13,08,11.80
2011,10,15,13,09,11.80
2011,10,15,13,10,11.80
2011,10,15,13,11,11.80
2011,10,15,13,12,11.80
2011,10,15,13,13,11.90
2011,10,15,13,14,11.80
2011,10,15,13,15,11.80
2011,10,15,13,16,11.80
2011,10,15,13,17,11.80
2011,10,15,13,18,11.90
2011,10,15,13,19,11.90
2011,10,15,13,20,11.90
2011,10,15,13,21,11.90
2011,10,15,13,22,12.00
2011,10,15,13,23,12.00
2011,10,15,13,24,12.10
2011,10,15,13,25,12.10
2011,10,15,13,26,12.20
2011,10,15,13,27,12.20
2011,10,15,13,28,12.20
2011,10,15,13,29,12.20
2011,10,15,13,30,12.30
2011,10,15,13,31,12.40
2011,10,15,13,32,12.50
2011,10,15,13,33,12.60
2011,10,15,13,34,12.60
2011,10,15,13,35,12.60
2011,10,15,13,36,12.70
2011,10,15,13,37,12.60
2011,10,15,13,38,12.60
2011,10,15,13,39,12.60
2011,10,15,13,40,12.50
2011,10,15,13,41,12.40
2011,10,15,13,42,12.30
2011,10,15,13,43,12.30
2011,10,15,13,44,12.30
2011,10,15,13,45,12.30
2011,10,15,13,46,12.40
2011,10,15,13,47,12.50
2011,10,15,13,48,12.60
2011,10,15,13,49,12.60
2011,10,15,13,50,12.50
2011,10,15,13,51,12.40
2011,10,15,13,52,12.30
2011,10,15,13,53,12.30
2011,10,15,13,54,12.30
2011,10,15,13,55,12.30
2011,10,15,13,56,12.30
2011,10,15,13,57,12.30
2011,10,15,13,58,12.40
2011,10,15,13,59,12.40
2011,10,15,14,00,12.40
2011,10,15,14,01,12.40
2011,10,15,14,02,12.40
2011,10,15,14,03,12.50
2011,10,15,14,04,12.50
2011,10,15,14,05,12.50
2011,10,15,14,06,12.50
2011,10,15,14,07,12.50
2011,10,15,14,08,12.50
2011,10,15,14,09,12.50
2011,10,15,14,10,12.60
2011,10,15,14,11,12.60
2011,10,15,14,12,12.60
2011,10,15,14,13,12.60
2011,10,15,14,14,12.70
2011,10,15,14,15,12.80
2011,10,15,14,16,12.90
2011,10,15,14,17,12.90
2011,10,15,14,18,13.00
2011,10,15,14,19,13.00
2011,10,15,14,20,13.10
2011,10,15,14,21,13.20
2011,10,15,14,22,13.30
2011,10,15,14,23,13.30
2011,10,15,14,24,13.30
2011,10,15,14,25,13.20
2011,10,15,14,26,13.20
2011,10,15,14,27,13.20
2011,10,15,14,28,13.20
2011,10,15,14,29,13.10
2011,10,15,14,30,13.10
2011,10,15,14,31,13.00
2011,10,15,14,32,13.00
2011,10,15,14,33,13.00
2011,10,15,14,34,13.10
2011,10,15,14,35,13.10
2011,10,15,14,36,13.10
2011,10,15,14,37,13.20
2011,10,15,14,38,13.30
2011,10,15,14,39,13.30
2011,10,15,14,40,13.30
2011,10,15,14,41,13.40
2011,10,15,14,42,13.40
2011,10,15,14,43,13.40
2011,10,15,14,44,13.40
2011,10,15,14,45,13.40
2011,10,15,14,46,13.30
2011,10,15,14,47,13.30
2011,10,15,14,48,13.30
2011,10,15,14,49,13.20
2011,10,15,14,50,13.20
2011,10,15,14,51,13.20
2011,10,15,14,52,13.20
2011,10,15,14,53,13.10
2011,10,15,14,54,13.10
2011,10,15,14,55,13.10
2011,10,15,14,56,13.10
2011,10,15,14,57,13.10
2011,10,15,14,58,13.10
2011,10,15,14,59,13.10
2011,10,15,15,00,13.10
2011,10,15,15,01,13.10
2011,10,15,15,02,13.10
2011,10,15,15,03,13.10
2011,10,15,15,04,13.20
2011,10,15,15,05,13.10
2011,10,15,15,06,13.10
2011,10,15,15,07,13.20
2011,10,15,15,08,13.30
2011,10,15,15,09,13.30
2011,10,15,15,10,13.20
2011,10,15,15,11,13.20
2011,10,15,15,12,13.20
2011,10,15,15,13,13.20
2011,10,15,15,14,13.20
2011,10,15,15,15,13.20
2011,10,15,15,16,13.20
2011,10,15,15,17,13.20
2011,10,15,15,18,13.20
2011,10,15,15,19,13.20
2011,10,15,15,20,13.20
2011,10,15,15,21,13.20
2011,10,15,15,22,13.20
2011,10,15,15,23,13.30
2011,10,15,15,24,13.30
2011,10,15,15,25,13.30
2011,10,15,15,26,13.30
2011,10,15,15,27,13.30
2011,10,15,15,28,13.30
2011,10,15,15,29,13.20
2011,10,15,15,30,13.20
2011,10,15,15,31,13.20
2011,10,15,15,32,13.20
2011,10,15,15,33,13.20
2011,10,15,15,34,13.20
2011,10,15,15,35,13.20
2011,10,15,15,36,13.20
2011,10,15,15,37,13.10
2011,10,15,15,38,13.10
2011,10,15,15,39,13.00
2011,10,15,15,40,13.00
2011,10,15,15,41,13.10
2011,10,15,15,42,13.10
2011,10,15,15,43,13.10
2011,10,15,15,44,13.20
2011,10,15,15,45,13.20
2011,10,15,15,46,13.20
2011,10,15,15,47,13.10
2011,10,15,15,48,13.10
2011,10,15,15,49,13.20
2011,10,15,15,50,13.20
2011,10,15,15,51,13.20
2011,10,15,15,52,13.20
2011,10,15,15,53,13.20
2011,10,15,15,54,13.30
2011,10,15,15,55,13.30
2011,10,15,15,56,13.30
2011,10,15,15,57,13.30
2011,10,15,15,58,13.30
2011,10,15,15,59,13.30
2011,10,15,16,00,13.30
2011,10,15,16,01,13.30
2011,10,15,16,02,13.30
2011,10,15,16,03,13.30
2011,10,15,16,04,13.30
2011,10,15,16,05,13.30
2011,10,15,16,06,13.30
2011,10,15,16,07,13.30
2011,10,15,16,08,13.30
2011,10,15,16,09,13.30
2011,10,15,16,10,13.30
2011,10,15,16,11,13.30
2011,10,15,16,12,13.30
2011,10,15,16,13,13.30
2011,10,15,16,14,13.30
2011,10,15,16,15,13.20
2011,10,15,16,16,13.20
2011,10,15,16,17,13.10
2011,10,15,16,18,13.10
2011,10,15,16,19,13.10
2011,10,15,16,20,13.10
2011,10,15,16,21,13.10
2011,10,15,16,22,13.00
2011,10,15,16,23,13.00
2011,10,15,16,24,13.00
2011,10,15,16,25,13.10
2011,10,15,16,26,13.10
2011,10,15,16,27,13.10
2011,10,15,16,28,13.00
2011,10,15,16,29,13.00
2011,10,15,16,30,13.10
2011,10,15,16,31,13.20
2011,10,15,16,32,13.20
2011,10,15,16,33,13.20
2011,10,15,16,34,13.30
2011,10,15,16,35,13.30
2011,10,15,16,36,13.30
2011,10,15,16,37,13.30
2011,10,15,16,38,13.30
2011,10,15,16,39,13.30
2011,10,15,16,40,13.30
2011,10,15,16,41,13.20
2011,10,15,16,42,13.10
2011,10,15,16,43,13.00
2011,10,15,16,44,12.90
2011,10,15,16,45,12.80
2011,10,15,16,46,12.80
2011,10,15,16,47,12.80
2011,10,15,16,48,12.80
2011,10,15,16,49,12.70
2011,10,15,16,50,12.70
2011,10,15,16,51,12.70
2011,10,15,16,52,12.70
2011,10,15,16,53,12.70
2011,10,15,16,54,12.70
2011,10,15,16,55,12.70
2011,10,15,16,56,12.70
2011,10,15,16,57,12.70
2011,10,15,16,58,12.60
2011,10,15,16,59,12.60
2011,10,15,17,00,12.60
2011,10,15,17,01,12.60
2011,10,15,17,02,12.60
2011,10,15,17,03,12.50
2011,10,15,17,04,12.50
2011,10,15,17,05,12.50
2011,10,15,17,06,12.40
2011,10,15,17,07,12.40
2011,10,15,17,08,12.40
2011,10,15,17,09,12.40
2011,10,15,17,10,12.40
2011,10,15,17,11,12.40
2011,10,15,17,12,12.40
2011,10,15,17,13,12.40
2011,10,15,17,14,12.40
2011,10,15,17,15,12.30
2011,10,15,17,16,12.30
2011,10,15,17,17,12.30
2011,10,15,17,18,12.20
2011,10,15,17,19,12.20
2011,10,15,17,20,12.20
2011,10,15,17,21,12.10
2011,10,15,17,22,12.10
2011,10,15,17,23,12.10
2011,10,15,17,24,12.00
2011,10,15,17,25,12.00
2011,10,15,17,26,11.90
2011,10,15,17,27,11.90
2011,10,15,17,28,11.90
2011,10,15,17,29,11.80
2011,10,15,17,30,11.80
2011,10,15,17,31,11.80
2011,10,15,17,32,11.80
2011,10,15,17,33,11.80
2011,10,15,17,34,11.80
2011,10,15,17,35,11.80
2011,10,15,17,36,11.70
2011,10,15,17,37,11.60
2011,10,15,17,38,11.60
2011,10,15,17,39,11.50
2011,10,15,17,40,11.40
2011,10,15,17,41,11.40
2011,10,15,17,42,11.40
2011,10,15,17,43,11.40
2011,10,15,17,44,11.30
2011,10,15,17,45,11.30
2011,10,15,17,46,11.20
2011,10,15,17,47,11.10
2011,10,15,17,48,11.10